{"data":{"norad_id":68629,"intl_designator":"2026-074C","name":"RAWHIDE-1","alt_names":[],"object_type":"PAYLOAD","status":"ACTIVE","operator":null,"country":"US","launch_date":"2026-04-07","launch_site_code":"AFWTR","launch_vehicle":null,"mission":null,"orbit_class":"UNKNOWN","rcs_meters":null,"size_class":null,"mass_kg":null,"dimensions":null,"purposes":[],"wikipedia_slug":null,"has_3d_model":false,"image_url":null,"decayed_at":null,"tle_current":{"epoch":"2026-05-24T16:37:11.392608Z","epoch_age_seconds":97657,"freshness":"FRESH","line1":"1 68629U 26074C   26144.69249297  .00008634  00000+0  35757-3 0  9995","line2":"2 68629  60.0211 268.3440 0025200   3.5713 356.5543 15.24405116  7207","mean_motion":15.24405116,"eccentricity":0.00252,"inclination_deg":60.0211,"raan_deg":268.344,"arg_perigee_deg":3.5713,"mean_anomaly_deg":356.5543,"bstar":0.00035757,"rev_number":720,"period_min":94.463078409139,"perigee_km":475.25814932605,"apogee_km":509.8865243838,"semimajor_km":6870.7093368549,"source":"CELESTRAK","updated_at":"2026-05-25T13:38:07.987306Z"}}}